Year,Month,Day,Hour,Minute,Value (Times are PST for temperature in C)
2017,10,31,00,00,4.60
2017,10,31,00,01,4.60
2017,10,31,00,02,4.60
2017,10,31,00,03,4.50
2017,10,31,00,04,4.50
2017,10,31,00,05,4.50
2017,10,31,00,06,4.40
2017,10,31,00,07,4.40
2017,10,31,00,08,4.40
2017,10,31,00,09,4.40
2017,10,31,00,10,4.40
2017,10,31,00,11,4.30
2017,10,31,00,12,4.30
2017,10,31,00,13,4.30
2017,10,31,00,14,4.30
2017,10,31,00,15,4.30
2017,10,31,00,16,4.30
2017,10,31,00,17,4.30
2017,10,31,00,18,4.20
2017,10,31,00,19,4.20
2017,10,31,00,20,4.20
2017,10,31,00,21,4.20
2017,10,31,00,22,4.20
2017,10,31,00,23,4.20
2017,10,31,00,24,4.20
2017,10,31,00,25,4.20
2017,10,31,00,26,4.20
2017,10,31,00,27,4.20
2017,10,31,00,28,4.20
2017,10,31,00,29,4.10
2017,10,31,00,30,4.10
2017,10,31,00,31,4.10
2017,10,31,00,32,4.10
2017,10,31,00,33,4.10
2017,10,31,00,34,4.10
2017,10,31,00,35,4.10
2017,10,31,00,36,4.00
2017,10,31,00,37,4.00
2017,10,31,00,38,4.00
2017,10,31,00,39,4.00
2017,10,31,00,40,3.90
2017,10,31,00,41,4.00
2017,10,31,00,42,4.00
2017,10,31,00,43,3.90
2017,10,31,00,44,3.90
2017,10,31,00,45,3.90
2017,10,31,00,46,3.90
2017,10,31,00,47,3.90
2017,10,31,00,48,3.90
2017,10,31,00,49,3.90
2017,10,31,00,50,3.90
2017,10,31,00,51,3.90
2017,10,31,00,52,3.90
2017,10,31,00,53,3.90
2017,10,31,00,54,3.90
2017,10,31,00,55,3.90
2017,10,31,00,56,3.90
2017,10,31,00,57,3.90
2017,10,31,00,58,3.90
2017,10,31,00,59,3.90
2017,10,31,01,00,3.90
2017,10,31,01,01,3.90
2017,10,31,01,02,3.90
2017,10,31,01,03,3.90
2017,10,31,01,04,3.90
2017,10,31,01,05,3.90
2017,10,31,01,06,3.90
2017,10,31,01,07,3.90
2017,10,31,01,08,3.90
2017,10,31,01,09,3.90
2017,10,31,01,10,3.90
2017,10,31,01,11,3.80
2017,10,31,01,12,3.80
2017,10,31,01,13,3.80
2017,10,31,01,14,3.80
2017,10,31,01,15,3.80
2017,10,31,01,16,3.80
2017,10,31,01,17,3.70
2017,10,31,01,18,3.70
2017,10,31,01,19,3.70
2017,10,31,01,20,3.70
2017,10,31,01,21,3.70
2017,10,31,01,22,3.70
2017,10,31,01,23,3.70
2017,10,31,01,24,3.70
2017,10,31,01,25,3.70
2017,10,31,01,26,3.70
2017,10,31,01,27,3.70
2017,10,31,01,28,3.70
2017,10,31,01,29,3.70
2017,10,31,01,30,3.70
2017,10,31,01,31,3.70
2017,10,31,01,32,3.70
2017,10,31,01,33,3.70
2017,10,31,01,34,3.70
2017,10,31,01,35,3.70
2017,10,31,01,36,3.70
2017,10,31,01,37,3.70
2017,10,31,01,38,3.70
2017,10,31,01,39,3.70
2017,10,31,01,40,3.70
2017,10,31,01,41,3.70
2017,10,31,01,42,3.70
2017,10,31,01,43,3.70
2017,10,31,01,44,3.70
2017,10,31,01,45,3.70
2017,10,31,01,46,3.70
2017,10,31,01,47,3.70
2017,10,31,01,48,3.70
2017,10,31,01,49,3.80
2017,10,31,01,50,3.80
2017,10,31,01,51,3.80
2017,10,31,01,52,3.80
2017,10,31,01,53,3.80
2017,10,31,01,54,3.90
2017,10,31,01,55,3.80
2017,10,31,01,56,3.90
2017,10,31,01,57,3.90
2017,10,31,01,58,3.90
2017,10,31,01,59,4.00
2017,10,31,02,00,4.00
2017,10,31,02,01,4.00
2017,10,31,02,02,4.00
2017,10,31,02,03,4.00
2017,10,31,02,04,4.10
2017,10,31,02,05,4.10
2017,10,31,02,06,4.10
2017,10,31,02,07,4.10
2017,10,31,02,08,4.20
2017,10,31,02,09,4.20
2017,10,31,02,10,4.20
2017,10,31,02,11,4.20
2017,10,31,02,12,4.20
2017,10,31,02,13,4.20
2017,10,31,02,14,4.20
2017,10,31,02,15,4.20
2017,10,31,02,16,4.20
2017,10,31,02,17,4.20
2017,10,31,02,18,4.10
2017,10,31,02,19,4.10
2017,10,31,02,20,4.10
2017,10,31,02,21,4.10
2017,10,31,02,22,4.10
2017,10,31,02,23,4.10
2017,10,31,02,24,4.10
2017,10,31,02,25,4.10
2017,10,31,02,26,4.10
2017,10,31,02,27,4.00
2017,10,31,02,28,4.00
2017,10,31,02,29,4.00
2017,10,31,02,30,4.00
2017,10,31,02,31,4.00
2017,10,31,02,32,4.00
2017,10,31,02,33,4.00
2017,10,31,02,34,3.90
2017,10,31,02,35,4.00
2017,10,31,02,36,3.90
2017,10,31,02,37,3.90
2017,10,31,02,38,3.90
2017,10,31,02,39,3.90
2017,10,31,02,40,3.90
2017,10,31,02,41,3.90
2017,10,31,02,42,3.90
2017,10,31,02,43,3.90
2017,10,31,02,44,3.90
2017,10,31,02,45,3.90
2017,10,31,02,46,3.90
2017,10,31,02,47,3.90
2017,10,31,02,48,3.90
2017,10,31,02,49,3.90
2017,10,31,02,50,3.90
2017,10,31,02,51,3.90
2017,10,31,02,52,3.90
2017,10,31,02,53,3.80
2017,10,31,02,54,3.80
2017,10,31,02,55,3.80
2017,10,31,02,56,3.80
2017,10,31,02,57,3.80
2017,10,31,02,58,3.80
2017,10,31,02,59,3.80
2017,10,31,03,00,3.80
2017,10,31,03,01,3.80
2017,10,31,03,02,3.80
2017,10,31,03,03,3.80
2017,10,31,03,04,3.80
2017,10,31,03,05,3.80
2017,10,31,03,06,3.90
2017,10,31,03,07,3.90
2017,10,31,03,08,3.90
2017,10,31,03,09,3.90
2017,10,31,03,10,3.90
2017,10,31,03,11,3.90
2017,10,31,03,12,3.90
2017,10,31,03,13,3.90
2017,10,31,03,14,3.90
2017,10,31,03,15,3.90
2017,10,31,03,16,3.80
2017,10,31,03,17,3.80
2017,10,31,03,18,3.80
2017,10,31,03,19,3.80
2017,10,31,03,20,3.80
2017,10,31,03,21,3.80
2017,10,31,03,22,3.80
2017,10,31,03,23,3.80
2017,10,31,03,24,3.80
2017,10,31,03,25,3.70
2017,10,31,03,26,3.70
2017,10,31,03,27,3.70
2017,10,31,03,28,3.70
2017,10,31,03,29,3.70
2017,10,31,03,30,3.70
2017,10,31,03,31,3.70
2017,10,31,03,32,3.70
2017,10,31,03,33,3.60
2017,10,31,03,34,3.60
2017,10,31,03,35,3.60
2017,10,31,03,36,3.60
2017,10,31,03,37,3.60
2017,10,31,03,38,3.60
2017,10,31,03,39,3.60
2017,10,31,03,40,3.60
2017,10,31,03,41,3.60
2017,10,31,03,42,3.60
2017,10,31,03,43,3.60
2017,10,31,03,44,3.60
2017,10,31,03,45,3.50
2017,10,31,03,46,3.50
2017,10,31,03,47,3.50
2017,10,31,03,48,3.40
2017,10,31,03,49,3.40
2017,10,31,03,50,3.40
2017,10,31,03,51,3.40
2017,10,31,03,52,3.40
2017,10,31,03,53,3.40
2017,10,31,03,54,3.40
2017,10,31,03,55,3.40
2017,10,31,03,56,3.40
2017,10,31,03,57,3.40
2017,10,31,03,58,3.40
2017,10,31,03,59,3.50
2017,10,31,04,00,3.50
2017,10,31,04,01,3.50
2017,10,31,04,02,3.50
2017,10,31,04,03,3.50
2017,10,31,04,04,3.50
2017,10,31,04,05,3.50
2017,10,31,04,06,3.50
2017,10,31,04,07,3.50
2017,10,31,04,08,3.50
2017,10,31,04,09,3.40
2017,10,31,04,10,3.40
2017,10,31,04,11,3.40
2017,10,31,04,12,3.40
2017,10,31,04,13,3.40
2017,10,31,04,14,3.40
2017,10,31,04,15,3.40
2017,10,31,04,16,3.40
2017,10,31,04,17,3.30
2017,10,31,04,18,3.30
2017,10,31,04,19,3.30
2017,10,31,04,20,3.30
2017,10,31,04,21,3.30
2017,10,31,04,22,3.30
2017,10,31,04,23,3.30
2017,10,31,04,24,3.30
2017,10,31,04,25,3.30
2017,10,31,04,26,3.30
2017,10,31,04,27,3.30
2017,10,31,04,28,3.30
2017,10,31,04,29,3.30
2017,10,31,04,30,3.20
2017,10,31,04,31,3.20
2017,10,31,04,32,3.20
2017,10,31,04,33,3.20
2017,10,31,04,34,3.20
2017,10,31,04,35,3.20
2017,10,31,04,36,3.20
2017,10,31,04,37,3.20
2017,10,31,04,38,3.20
2017,10,31,04,39,3.20
2017,10,31,04,40,3.20
2017,10,31,04,41,3.20
2017,10,31,04,42,3.20
2017,10,31,04,43,3.20
2017,10,31,04,44,3.20
2017,10,31,04,45,3.20
2017,10,31,04,46,3.10
2017,10,31,04,47,3.10
2017,10,31,04,48,3.10
2017,10,31,04,49,3.10
2017,10,31,04,50,3.10
2017,10,31,04,51,3.10
2017,10,31,04,52,3.10
2017,10,31,04,53,3.00
2017,10,31,04,54,3.00
2017,10,31,04,55,3.00
2017,10,31,04,56,3.00
2017,10,31,04,57,3.00
2017,10,31,04,58,3.00
2017,10,31,04,59,3.00
2017,10,31,05,00,2.90
2017,10,31,05,01,2.90
2017,10,31,05,02,2.90
2017,10,31,05,03,2.90
2017,10,31,05,04,2.90
2017,10,31,05,05,2.90
2017,10,31,05,06,2.80
2017,10,31,05,07,2.80
2017,10,31,05,08,2.80
2017,10,31,05,09,2.80
2017,10,31,05,10,2.80
2017,10,31,05,11,2.80
2017,10,31,05,12,2.80
2017,10,31,05,13,2.80
2017,10,31,05,14,2.80
2017,10,31,05,15,2.80
2017,10,31,05,16,2.80
2017,10,31,05,17,2.80
2017,10,31,05,18,2.80
2017,10,31,05,19,2.80
2017,10,31,05,20,2.80
2017,10,31,05,21,2.80
2017,10,31,05,22,2.80
2017,10,31,05,23,2.70
2017,10,31,05,24,2.70
2017,10,31,05,25,2.70
2017,10,31,05,26,2.70
2017,10,31,05,27,2.70
2017,10,31,05,28,2.70
2017,10,31,05,29,2.70
2017,10,31,05,30,2.70
2017,10,31,05,31,2.70
2017,10,31,05,32,2.70
2017,10,31,05,33,2.70
2017,10,31,05,34,2.70
2017,10,31,05,35,2.70
2017,10,31,05,36,2.70
2017,10,31,05,37,2.70
2017,10,31,05,38,2.70
2017,10,31,05,39,2.70
2017,10,31,05,40,2.70
2017,10,31,05,41,2.70
2017,10,31,05,42,2.70
2017,10,31,05,43,2.70
2017,10,31,05,44,2.70
2017,10,31,05,45,2.70
2017,10,31,05,46,2.70
2017,10,31,05,47,2.70
2017,10,31,05,48,2.70
2017,10,31,05,49,2.70
2017,10,31,05,50,2.60
2017,10,31,05,51,2.60
2017,10,31,05,52,2.60
2017,10,31,05,53,2.60
2017,10,31,05,54,2.60
2017,10,31,05,55,2.60
2017,10,31,05,56,2.60
2017,10,31,05,57,2.60
2017,10,31,05,58,2.60
2017,10,31,05,59,2.60
2017,10,31,06,00,2.60
2017,10,31,06,01,2.60
2017,10,31,06,02,2.60
2017,10,31,06,03,2.60
2017,10,31,06,04,2.60
2017,10,31,06,05,2.60
2017,10,31,06,06,2.60
2017,10,31,06,07,2.60
2017,10,31,06,08,2.60
2017,10,31,06,09,2.70
2017,10,31,06,10,2.70
2017,10,31,06,11,2.70
2017,10,31,06,12,2.70
2017,10,31,06,13,2.70
2017,10,31,06,14,2.70
2017,10,31,06,15,2.70
2017,10,31,06,16,2.70
2017,10,31,06,17,2.70
2017,10,31,06,18,2.70
2017,10,31,06,19,2.70
2017,10,31,06,20,2.70
2017,10,31,06,21,2.70
2017,10,31,06,22,2.70
2017,10,31,06,23,2.70
2017,10,31,06,24,2.70
2017,10,31,06,25,2.70
2017,10,31,06,26,2.70
2017,10,31,06,27,2.70
2017,10,31,06,28,2.70
2017,10,31,06,29,2.70
2017,10,31,06,30,2.70
2017,10,31,06,31,2.70
2017,10,31,06,32,2.70
2017,10,31,06,33,2.70
2017,10,31,06,34,2.70
2017,10,31,06,35,2.70
2017,10,31,06,36,2.70
2017,10,31,06,37,2.70
2017,10,31,06,38,2.70
2017,10,31,06,39,2.80
2017,10,31,06,40,2.80
2017,10,31,06,41,2.80
2017,10,31,06,42,2.80
2017,10,31,06,43,2.80
2017,10,31,06,44,2.80
2017,10,31,06,45,2.80
2017,10,31,06,46,2.80
2017,10,31,06,47,2.80
2017,10,31,06,48,2.80
2017,10,31,06,49,2.80
2017,10,31,06,50,2.80
2017,10,31,06,51,2.80
2017,10,31,06,52,2.80
2017,10,31,06,53,2.80
2017,10,31,06,54,2.80
2017,10,31,06,55,2.80
2017,10,31,06,56,2.80
2017,10,31,06,57,2.80
2017,10,31,06,58,2.80
2017,10,31,06,59,2.80
2017,10,31,07,00,2.80
2017,10,31,07,01,2.80
2017,10,31,07,02,2.80
2017,10,31,07,03,2.80
2017,10,31,07,04,2.80
2017,10,31,07,05,2.80
2017,10,31,07,06,2.80
2017,10,31,07,39,2.80
2017,10,31,07,40,2.80
2017,10,31,07,41,2.80
2017,10,31,07,42,2.80
2017,10,31,07,43,2.80
2017,10,31,07,44,2.80
2017,10,31,07,45,2.80
2017,10,31,07,46,2.80
2017,10,31,07,47,2.80
2017,10,31,07,48,2.80
2017,10,31,07,49,2.80
2017,10,31,07,50,2.80
2017,10,31,07,51,2.80
2017,10,31,07,52,2.80
2017,10,31,07,53,2.80
2017,10,31,07,54,2.80
2017,10,31,07,55,2.80
2017,10,31,07,56,2.80
2017,10,31,07,57,2.80
2017,10,31,07,58,2.80
2017,10,31,07,59,2.80
2017,10,31,08,00,2.80
2017,10,31,08,01,2.80
2017,10,31,08,02,2.70
2017,10,31,08,03,2.70
2017,10,31,08,04,2.70
2017,10,31,08,05,2.70
2017,10,31,08,06,2.70
2017,10,31,08,07,2.70
2017,10,31,08,08,2.80
2017,10,31,08,09,2.80
2017,10,31,08,10,2.80
2017,10,31,08,11,2.80
2017,10,31,08,12,2.80
2017,10,31,08,13,2.80
2017,10,31,08,14,2.80
2017,10,31,08,15,2.90
2017,10,31,08,16,2.80
2017,10,31,08,17,2.80
2017,10,31,08,18,2.80
2017,10,31,08,19,2.90
2017,10,31,08,20,2.90
2017,10,31,08,21,2.90
2017,10,31,08,22,2.90
2017,10,31,08,23,2.90
2017,10,31,08,24,2.90
2017,10,31,08,25,3.00
2017,10,31,08,26,3.00
2017,10,31,08,27,3.00
2017,10,31,08,28,3.00
2017,10,31,08,29,3.10
2017,10,31,08,30,3.10
2017,10,31,08,31,3.10
2017,10,31,08,32,3.10
2017,10,31,08,33,3.10
2017,10,31,08,34,3.10
2017,10,31,08,35,3.10
2017,10,31,08,36,3.10
2017,10,31,08,37,3.10
2017,10,31,08,38,3.10
2017,10,31,08,39,3.10
2017,10,31,08,40,3.10
2017,10,31,08,41,3.10
2017,10,31,08,42,3.20
2017,10,31,08,43,3.20
2017,10,31,08,44,3.20
2017,10,31,08,45,3.20
2017,10,31,08,46,3.30
2017,10,31,08,47,3.30
2017,10,31,08,48,3.30
2017,10,31,08,49,3.30
2017,10,31,08,50,3.40
2017,10,31,08,51,3.40
2017,10,31,08,52,3.40
2017,10,31,08,53,3.50
2017,10,31,08,54,3.60
2017,10,31,08,55,3.60
2017,10,31,08,56,3.60
2017,10,31,08,57,3.70
2017,10,31,08,58,3.70
2017,10,31,08,59,3.70
2017,10,31,09,00,3.80
2017,10,31,09,01,3.80
2017,10,31,09,02,3.80
2017,10,31,09,03,3.80
2017,10,31,09,04,3.90
2017,10,31,09,05,3.90
2017,10,31,09,06,4.00
2017,10,31,09,07,4.00
2017,10,31,09,08,4.10
2017,10,31,09,09,4.10
2017,10,31,09,10,4.20
2017,10,31,09,11,4.20
2017,10,31,09,12,4.30
2017,10,31,09,13,4.30
2017,10,31,09,14,4.40
2017,10,31,09,15,4.40
2017,10,31,09,16,4.40
2017,10,31,09,17,4.50
2017,10,31,09,18,4.50
2017,10,31,09,19,4.60
2017,10,31,09,20,4.60
2017,10,31,09,21,4.60
2017,10,31,09,22,4.70
2017,10,31,09,23,4.70
2017,10,31,09,24,4.70
2017,10,31,09,25,4.80
2017,10,31,09,26,4.80
2017,10,31,09,27,4.80
2017,10,31,09,28,4.90
2017,10,31,09,29,5.00
2017,10,31,09,30,5.00
2017,10,31,09,31,5.10
2017,10,31,09,32,5.10
2017,10,31,09,33,5.10
2017,10,31,09,34,5.20
2017,10,31,09,35,5.20
2017,10,31,09,36,5.20
2017,10,31,09,37,5.30
2017,10,31,09,38,5.30
2017,10,31,09,39,5.30
2017,10,31,09,40,5.40
2017,10,31,09,41,5.40
2017,10,31,09,42,5.50
2017,10,31,09,43,5.60
2017,10,31,09,44,5.60
2017,10,31,09,45,5.70
2017,10,31,09,46,5.80
2017,10,31,09,47,5.80
2017,10,31,09,48,6.00
2017,10,31,09,49,6.10
2017,10,31,09,50,6.10
2017,10,31,09,51,6.20
2017,10,31,09,52,6.30
2017,10,31,09,53,6.40
2017,10,31,09,54,6.40
2017,10,31,09,55,6.40
2017,10,31,09,56,6.50
2017,10,31,09,57,6.60
2017,10,31,09,58,6.60
2017,10,31,09,59,6.70
2017,10,31,10,00,6.70
2017,10,31,10,01,6.80
2017,10,31,10,02,6.80
2017,10,31,10,03,6.90
2017,10,31,10,04,6.90
2017,10,31,10,05,7.00
2017,10,31,10,06,7.10
2017,10,31,10,07,7.10
2017,10,31,10,08,7.20
2017,10,31,10,09,7.30
2017,10,31,10,10,7.30
2017,10,31,10,11,7.40
2017,10,31,10,12,7.50
2017,10,31,10,13,7.60
2017,10,31,10,14,7.70
2017,10,31,10,15,7.80
2017,10,31,10,16,7.90
2017,10,31,10,17,8.00
2017,10,31,10,18,8.10
2017,10,31,10,19,8.20
2017,10,31,10,20,8.20
2017,10,31,10,21,8.30
2017,10,31,10,22,8.40
2017,10,31,10,23,8.50
2017,10,31,10,24,8.60
2017,10,31,10,25,8.70
2017,10,31,10,26,8.70
2017,10,31,10,27,8.80
2017,10,31,10,28,8.90
2017,10,31,10,29,9.00
2017,10,31,10,30,9.10
2017,10,31,10,31,9.10
2017,10,31,10,32,9.20
2017,10,31,10,33,9.30
2017,10,31,10,34,9.40
2017,10,31,10,35,9.40
2017,10,31,10,36,9.50
2017,10,31,10,37,9.60
2017,10,31,10,38,9.70
2017,10,31,10,39,9.70
2017,10,31,10,40,9.70
2017,10,31,10,41,9.80
2017,10,31,10,42,9.80
2017,10,31,10,43,9.90
2017,10,31,10,44,10.00
2017,10,31,10,45,10.10
2017,10,31,10,46,10.20
2017,10,31,10,47,10.30
2017,10,31,10,48,10.30
2017,10,31,10,49,10.40
2017,10,31,10,50,10.50
2017,10,31,10,51,10.60
2017,10,31,10,52,10.70
2017,10,31,10,53,10.70
2017,10,31,10,54,10.80
2017,10,31,10,55,10.80
2017,10,31,10,56,10.90
2017,10,31,10,57,11.00
2017,10,31,10,58,11.00
2017,10,31,10,59,11.10
2017,10,31,11,00,11.20
2017,10,31,11,01,11.30
2017,10,31,11,02,11.30
2017,10,31,11,03,11.30
2017,10,31,11,04,11.30
2017,10,31,11,05,11.30
2017,10,31,11,06,11.30
2017,10,31,11,07,11.20
2017,10,31,11,08,11.20
2017,10,31,11,09,11.20
2017,10,31,11,10,11.20
2017,10,31,11,11,11.20
2017,10,31,11,12,11.20
2017,10,31,11,13,11.20
2017,10,31,11,14,11.20
2017,10,31,11,15,11.20
2017,10,31,11,16,11.20
2017,10,31,11,17,11.20
2017,10,31,11,18,11.20
2017,10,31,11,19,11.20
2017,10,31,11,20,11.20
2017,10,31,11,21,11.20
2017,10,31,11,22,11.30
2017,10,31,11,23,11.30
2017,10,31,11,24,11.30
2017,10,31,11,25,11.40
2017,10,31,11,26,11.40
2017,10,31,11,27,11.40
2017,10,31,11,28,11.40
2017,10,31,11,29,11.40
2017,10,31,11,30,11.40
2017,10,31,11,31,11.40
2017,10,31,11,32,11.50
2017,10,31,11,33,11.50
2017,10,31,11,34,11.50
2017,10,31,11,35,11.50
2017,10,31,11,36,11.50
2017,10,31,11,37,11.50
2017,10,31,11,38,11.60
2017,10,31,11,39,11.60
2017,10,31,11,40,11.60
2017,10,31,11,41,11.60
2017,10,31,11,42,11.60
2017,10,31,11,43,11.70
2017,10,31,11,44,11.70
2017,10,31,11,45,11.70
2017,10,31,11,46,11.70
2017,10,31,11,47,11.60
2017,10,31,11,48,11.60
2017,10,31,11,49,11.50
2017,10,31,11,50,11.40
2017,10,31,11,51,11.40
2017,10,31,11,52,11.40
2017,10,31,11,53,11.50
2017,10,31,11,54,11.50
2017,10,31,11,55,11.50
2017,10,31,11,56,11.50
2017,10,31,11,57,11.50
2017,10,31,11,58,11.50
2017,10,31,11,59,11.50
2017,10,31,12,00,11.50
2017,10,31,12,01,11.50
2017,10,31,12,02,11.50
2017,10,31,12,03,11.50
2017,10,31,12,04,11.50
2017,10,31,12,05,11.50
2017,10,31,12,06,11.50
2017,10,31,12,07,11.40
2017,10,31,12,08,11.40
2017,10,31,12,09,11.40
2017,10,31,12,10,11.40
2017,10,31,12,11,11.40
2017,10,31,12,12,11.40
2017,10,31,12,13,11.40
2017,10,31,12,14,11.40
2017,10,31,12,15,11.40
2017,10,31,12,16,11.40
2017,10,31,12,17,11.40
2017,10,31,12,18,11.40
2017,10,31,12,19,11.50
2017,10,31,12,20,11.50
2017,10,31,12,21,11.60
2017,10,31,12,22,11.60
2017,10,31,12,23,11.70
2017,10,31,12,24,11.70
2017,10,31,12,25,11.70
2017,10,31,12,26,11.80
2017,10,31,12,27,11.90
2017,10,31,12,28,11.90
2017,10,31,12,29,11.90
2017,10,31,12,30,11.90
2017,10,31,12,31,11.90
2017,10,31,12,32,11.90
2017,10,31,12,33,11.90
2017,10,31,12,34,11.90
2017,10,31,12,35,11.90
2017,10,31,12,36,11.90
2017,10,31,12,37,12.00
2017,10,31,12,38,12.00
2017,10,31,12,39,12.00
2017,10,31,12,40,12.00
2017,10,31,12,41,12.00
2017,10,31,12,42,12.00
2017,10,31,12,43,12.00
2017,10,31,12,44,12.10
2017,10,31,12,45,12.10
2017,10,31,12,46,12.20
2017,10,31,12,47,12.20
2017,10,31,12,48,12.10
2017,10,31,12,49,12.20
2017,10,31,12,50,12.10
2017,10,31,12,51,12.10
2017,10,31,12,52,12.10
2017,10,31,12,53,12.10
2017,10,31,12,54,12.10
2017,10,31,12,55,12.00
2017,10,31,12,56,12.00
2017,10,31,12,57,12.00
2017,10,31,12,58,11.90
2017,10,31,12,59,11.90
2017,10,31,13,00,11.80
2017,10,31,13,01,11.80
2017,10,31,13,02,11.70
2017,10,31,13,03,11.70
2017,10,31,13,04,11.60
2017,10,31,13,05,11.60
2017,10,31,13,06,11.50
2017,10,31,13,07,11.40
2017,10,31,13,08,11.40
2017,10,31,13,09,11.40
2017,10,31,13,10,11.40
2017,10,31,13,11,11.40
2017,10,31,13,12,11.40
2017,10,31,13,13,11.40
2017,10,31,13,14,11.40
2017,10,31,13,15,11.50
2017,10,31,13,16,11.50
2017,10,31,13,17,11.50
2017,10,31,13,18,11.50
2017,10,31,13,19,11.50
2017,10,31,13,20,11.50
2017,10,31,13,21,11.50
2017,10,31,13,22,11.50
2017,10,31,13,23,11.50
2017,10,31,13,24,11.50
2017,10,31,13,25,11.40
2017,10,31,13,26,11.40
2017,10,31,13,27,11.40
2017,10,31,13,28,11.30
2017,10,31,13,29,11.30
2017,10,31,13,30,11.30
2017,10,31,13,31,11.30
2017,10,31,13,32,11.30
2017,10,31,13,33,11.20
2017,10,31,13,34,11.20
2017,10,31,13,35,11.10
2017,10,31,13,36,11.10
2017,10,31,13,37,11.10
2017,10,31,13,38,11.10
2017,10,31,13,39,11.10
2017,10,31,13,40,11.10
2017,10,31,13,41,11.00
2017,10,31,13,42,11.00
2017,10,31,13,43,11.00
2017,10,31,13,44,11.00
2017,10,31,13,45,11.00
2017,10,31,13,46,11.00
2017,10,31,13,47,10.90
2017,10,31,13,48,10.90
2017,10,31,13,49,10.90
2017,10,31,13,50,10.90
2017,10,31,13,51,10.90
2017,10,31,13,52,10.90
2017,10,31,13,53,10.90
2017,10,31,13,54,10.90
2017,10,31,13,55,10.90
2017,10,31,13,56,11.00
2017,10,31,13,57,11.00
2017,10,31,13,58,11.10
2017,10,31,13,59,11.10
2017,10,31,14,00,11.10
2017,10,31,14,01,11.20
2017,10,31,14,02,11.20
2017,10,31,14,03,11.20
2017,10,31,14,04,11.20
2017,10,31,14,05,11.20
2017,10,31,14,06,11.30
2017,10,31,14,07,11.30
2017,10,31,14,08,11.40
2017,10,31,14,09,11.40
2017,10,31,14,10,11.50
2017,10,31,14,11,11.50
2017,10,31,14,12,11.60
2017,10,31,14,13,11.60
2017,10,31,14,14,11.70
2017,10,31,14,15,11.70
2017,10,31,14,16,11.80
2017,10,31,14,17,11.90
2017,10,31,14,18,11.90
2017,10,31,14,19,11.90
2017,10,31,14,20,11.90
2017,10,31,14,21,11.90
2017,10,31,14,22,11.90
2017,10,31,14,23,11.80
2017,10,31,14,24,11.80
2017,10,31,14,25,11.80
2017,10,31,14,26,11.70
2017,10,31,14,27,11.70
2017,10,31,14,28,11.70
2017,10,31,14,29,11.70
2017,10,31,14,30,11.70
2017,10,31,14,31,11.70
2017,10,31,14,32,11.80
2017,10,31,14,33,11.80
2017,10,31,14,34,11.80
2017,10,31,14,35,11.80
2017,10,31,14,36,11.80
2017,10,31,14,37,11.80
2017,10,31,14,38,11.80
2017,10,31,14,39,11.80
2017,10,31,14,40,11.70
2017,10,31,14,41,11.70
2017,10,31,14,42,11.70
2017,10,31,14,43,11.70
2017,10,31,14,44,11.70
2017,10,31,14,45,11.70
2017,10,31,14,46,11.70
2017,10,31,14,47,11.70
2017,10,31,14,48,11.70
2017,10,31,14,49,11.70
2017,10,31,14,50,11.70
2017,10,31,14,51,11.70
2017,10,31,14,52,11.60
2017,10,31,14,53,11.60
2017,10,31,14,54,11.60
2017,10,31,14,55,11.50
2017,10,31,14,56,11.50
2017,10,31,14,57,11.50
2017,10,31,14,58,11.50
2017,10,31,14,59,11.50
2017,10,31,15,00,11.50
2017,10,31,15,01,11.40
2017,10,31,15,02,11.40
2017,10,31,15,03,11.40
2017,10,31,15,04,11.30
2017,10,31,15,05,11.30
2017,10,31,15,06,11.30
2017,10,31,15,07,11.30
2017,10,31,15,08,11.20
2017,10,31,15,09,11.20
2017,10,31,15,10,11.10
2017,10,31,15,11,11.10
2017,10,31,15,12,11.10
2017,10,31,15,13,11.00
2017,10,31,15,14,11.00
2017,10,31,15,15,11.00
2017,10,31,15,16,11.00
2017,10,31,15,17,11.00
2017,10,31,15,18,10.90
2017,10,31,15,19,10.90
2017,10,31,15,20,10.90
2017,10,31,15,21,10.90
2017,10,31,15,22,10.90
2017,10,31,15,23,10.90
2017,10,31,15,24,10.90
2017,10,31,15,25,10.90
2017,10,31,15,26,11.00
2017,10,31,15,27,11.00
2017,10,31,15,28,11.00
2017,10,31,15,29,11.00
2017,10,31,15,30,11.00
2017,10,31,15,31,11.00
2017,10,31,15,32,11.00
2017,10,31,15,33,11.00
2017,10,31,15,34,11.00
2017,10,31,15,35,11.00
2017,10,31,15,36,11.00
2017,10,31,15,37,10.90
2017,10,31,15,38,10.90
2017,10,31,15,39,11.00
2017,10,31,15,40,11.00
2017,10,31,15,41,11.00
2017,10,31,15,42,11.10
2017,10,31,15,43,11.10
2017,10,31,15,44,11.10
2017,10,31,15,45,11.10
2017,10,31,15,46,11.00
2017,10,31,15,47,11.00
2017,10,31,15,48,11.00
2017,10,31,15,49,11.00
2017,10,31,15,50,11.10
2017,10,31,15,51,11.10
2017,10,31,15,52,11.00
2017,10,31,15,53,10.90
2017,10,31,15,54,10.80
2017,10,31,15,55,10.80
2017,10,31,15,56,10.80
2017,10,31,15,57,10.70
2017,10,31,15,58,10.70
2017,10,31,15,59,10.70
2017,10,31,16,00,10.60
2017,10,31,16,01,10.60
2017,10,31,16,02,10.60
2017,10,31,16,03,10.60
2017,10,31,16,04,10.60
2017,10,31,16,05,10.60
2017,10,31,16,06,10.60
2017,10,31,16,07,10.60
2017,10,31,16,08,10.60
2017,10,31,16,09,10.50
2017,10,31,16,10,10.50
2017,10,31,16,11,10.50
2017,10,31,16,12,10.50
2017,10,31,16,13,10.40
2017,10,31,16,14,10.40
2017,10,31,16,15,10.40
2017,10,31,16,16,10.40
2017,10,31,16,17,10.40
2017,10,31,16,18,10.40
2017,10,31,16,19,10.40
2017,10,31,16,20,10.40
2017,10,31,16,21,10.50
2017,10,31,16,22,10.50
2017,10,31,16,23,10.50
2017,10,31,16,24,10.50
2017,10,31,16,25,10.50
2017,10,31,16,26,10.40
2017,10,31,16,27,10.40
2017,10,31,16,28,10.40
2017,10,31,16,29,10.40
2017,10,31,16,30,10.40
2017,10,31,16,31,10.40
2017,10,31,16,32,10.40
2017,10,31,16,33,10.40
2017,10,31,16,34,10.40
2017,10,31,16,35,10.40
2017,10,31,16,36,10.40
2017,10,31,16,37,10.40
2017,10,31,16,38,10.40
2017,10,31,16,39,10.40
2017,10,31,16,40,10.40
2017,10,31,16,41,10.40
2017,10,31,16,42,10.40
2017,10,31,16,43,10.40
2017,10,31,16,44,10.30
2017,10,31,16,45,10.30
2017,10,31,16,46,10.30
2017,10,31,16,47,10.30
2017,10,31,16,48,10.30
2017,10,31,16,49,10.20
2017,10,31,16,50,10.20
2017,10,31,16,51,10.20
2017,10,31,16,52,10.10
2017,10,31,16,53,10.10
2017,10,31,16,54,10.00
2017,10,31,16,55,10.00
2017,10,31,16,56,10.00
2017,10,31,16,57,9.90
2017,10,31,16,58,9.90
2017,10,31,16,59,9.90
2017,10,31,17,00,9.90
2017,10,31,17,01,9.90
2017,10,31,17,02,9.90
2017,10,31,17,03,9.90
2017,10,31,17,04,9.90
2017,10,31,17,05,9.90
2017,10,31,17,06,9.90
2017,10,31,17,07,9.90
2017,10,31,17,08,9.80
2017,10,31,17,09,9.80
2017,10,31,17,10,9.80
2017,10,31,17,11,9.80
2017,10,31,17,12,9.70
2017,10,31,17,13,9.70
2017,10,31,17,14,9.70
2017,10,31,17,15,9.60
2017,10,31,17,16,9.60
2017,10,31,17,17,9.60
2017,10,31,17,18,9.50
2017,10,31,17,19,9.50
2017,10,31,17,20,9.40
2017,10,31,17,21,9.40
2017,10,31,17,22,9.40
2017,10,31,17,23,9.40
2017,10,31,17,24,9.30
2017,10,31,17,25,9.30
2017,10,31,17,26,9.30
2017,10,31,17,27,9.30
2017,10,31,17,28,9.30
2017,10,31,17,29,9.30
2017,10,31,17,30,9.20
2017,10,31,17,31,9.20
2017,10,31,17,32,9.30
2017,10,31,17,33,9.20
2017,10,31,17,34,9.20
2017,10,31,17,35,9.20
2017,10,31,17,36,9.20
2017,10,31,17,37,9.30
2017,10,31,17,38,9.20
2017,10,31,17,39,9.30
2017,10,31,17,40,9.30
2017,10,31,17,41,9.30
2017,10,31,17,42,9.20
2017,10,31,17,43,9.20
2017,10,31,17,44,9.20
2017,10,31,17,45,9.20
2017,10,31,17,46,9.20
2017,10,31,17,47,9.20
2017,10,31,17,48,9.20
2017,10,31,17,49,9.20
2017,10,31,17,50,9.10
2017,10,31,17,51,9.10
2017,10,31,17,52,9.10
2017,10,31,17,53,9.10
2017,10,31,17,54,9.10
2017,10,31,17,55,9.10
2017,10,31,17,56,9.00
2017,10,31,17,57,9.00
2017,10,31,17,58,9.00
2017,10,31,17,59,8.90
2017,10,31,18,00,8.90
2017,10,31,18,01,8.90
2017,10,31,18,02,8.90
2017,10,31,18,03,8.90
2017,10,31,18,04,8.90
2017,10,31,18,05,8.80
2017,10,31,18,06,8.80
2017,10,31,18,07,8.80
2017,10,31,18,08,8.80
2017,10,31,18,09,8.70
2017,10,31,18,10,8.70
2017,10,31,18,11,8.70
2017,10,31,18,12,8.70
2017,10,31,18,13,8.60
2017,10,31,18,14,8.60
2017,10,31,18,15,8.60
2017,10,31,18,16,8.60
2017,10,31,18,17,8.50
2017,10,31,18,18,8.50
2017,10,31,18,19,8.50
2017,10,31,18,20,8.40
2017,10,31,18,21,8.40